Location: Diebersbach
(48.5163°N, 8.0558°E)
Time: 09:51:04
(UTC+00:00)

USA 229 - Pass Details

Date: 20 June 2021
Orbit: 956 x 1256 km, 63.5° (Epoch: 25 July)

Event Time Altitude Azimuth Distance (km) Brightness Sun altitude
Exits shadow 00:22:33 23° 216° (SW) 1,958 4.6 -17.1°
Maximum altitude 00:26:46 86° 129° (SE) 1,034 3.6 -16.9°
Drops below altitude 10° 00:33:41 10° 42° (NE) 2,931 7.0 -16.6°
Sets 00:36:26 0° 42° (NE) 3,937 7.8 -16.5°
